STARLINK-1373 (45544 NORAD) Tracking and Keplerian Element Data

This shows tracking and keplerian element data for the satellite.

Feedback or suggestion? Click here.




ElementValue
Catalog45544
NameSTARLINK-1373
Epoch Orbit624
Epoch Day149.25001157
Epoch Year2020
RAAN226.6139
Inclination52.9975
Eccentricity0.0004047
Argument of Perigee26.541
Mean Anonmoly295.7714
Mean Motion15.32338537
Decay Rate0.0555262
L11 45544U 20025P 20149.25001157 .05552620 00000-0 15138+0 0 9990
L22 45544 52.9975 226.6139 0004047 26.5410 295.7714 15.32338537 6240

Live tracking and technical data element details for STARLINK-1373 (NORAD 45544). STARLINK-1373 can be tracked NOW for your location showing map with azimuth and elevation plus other details from your city location.

Track the satellite on the map from your city or location and see movement details for azimuth, elevation, latitude, longitude, range, height, and movement on the map or in text.







IsCatalogInMostPopularTable: catalog: 45544, numindb: 6
Update: records affected: 1



GetName: 45544 STARLINK-1373

Hit Count: updated at: Sat, 30 May 2020 15:34:09 GMT